Regional Weather Roundup
Issued by NWS Columbia, SC

Home | Current Version | Previous Version | Text Only | Print | Product List | Glossary On
Versions: 1 2 3 4 5 6 7 8 9 10 11 12 13 14 15 16 17 18 19 20 21 22 23 24 25 26 27 28 29 30 31 32 33 34 35 36 37 38 39 40 41 42 43 44 45 46 47 48 49 50
000
ASUS42 KCAE 240310
RWRCAE
REGIONAL WEATHER ROUNDUP
NATIONAL WEATHER SERVICE COLUMBIA SC
1100 PM EDT WED JUL 23 2014

NOTE: "FAIR" INDICATES FEW OR NO CLOUDS BELOW 12,000 FEET WITH NO
SIGNIFICANT WEATHER AND/OR OBSTRUCTIONS TO VISIBILITY.

NOT ALL STATIONS ARE QUALITY CONTROLLED BY THE NATIONAL
WEATHER SERVICE. USE DATA WITH CAUTION...ESPECIALLY
DEWPOINT OBSERVATIONS.

SCZ001>056-GAZ040-063>065-077-240400-
...UPSTATE SOUTH CAROLINA...

CITY           SKY/WX    TMP DP  RH WIND       PRES   REMARKS
ANDERSON       PTCLDY    76  72  87 CALM      29.99R
LIBERTY        FAIR      71  32  23 CALM      29.99S
SPARTANBURG    FAIR      75  75 100 CALM      29.97S
CLEMSON        CLEAR     75  70  84 CALM      30.00S
GREENVILLE     PTCLDY    76  70  82 S5        29.99F
GREENWOOD      PTCLDY    79  71  76 SW6       29.99R
GREER          CLEAR     74  71  91 S5        29.96F
ROCK HILL      CLEAR     73  71  93 S6        29.96F
CHESTER        FAIR      77  77 100 CALM      29.97S
LAURENS        FAIR      79  79 100 SW5       29.98S


...CENTRAL SOUTH CAROLINA...

CITY           SKY/WX    TMP DP  RH WIND       PRES   REMARKS
COLUMBIA APT   PTCLDY    84  72  67 CALM      29.94F
COLUMBIA OWENS PTCLDY    82  71  69 CALM      29.96S
DARLINGTON     CLEAR     81  73  78 S5        29.96S
FLORENCE       CLEAR     79  75  87 S7        29.95S
MCENTIRE ANGB  CLEAR     78  76  92 S6        29.96F
ORANGEBURG     CLEAR     79  73  82 S8        29.97F
SUMTER SHAW    CLEAR     80  75  83 S9        29.94F
NEWBERRY       FAIR      79  72  78 SW5       29.99S
AIKEN          FAIR      77  73  88 CALM      30.01S
BARNWELL       FAIR      82  75  78 S3        29.98S
MANNING        FAIR      81  81 100 S5        29.97S
CAMDEN           N/A     81  73  78 S5        29.96F
LANCASTER      MOCLDY    75  75 100 CALM      29.96S
WINNSBORO      FAIR      79  72  78 SW5       29.96F


...EASTERN AND COASTAL SOUTH CAROLINA...

CITY           SKY/WX    TMP DP  RH WIND       PRES   REMARKS
MYRTLE BEACH   MOCLDY    81  73  78 SW8       29.98R
N MYRTLE BCH   PTCLDY    81  75  82 SW8       29.96F
CONWAY         FAIR      77  77 100 S6        29.97S
MARION         FAIR      77  75  94 S6        29.96F
HARTSVILLE     FAIR      81  64  57 S5        29.96F
FLORENCE       CLEAR     79  75  87 S7        29.95S
DARLINGTON     CLEAR     81  73  78 S5        29.96S
CHARLESTON APT PTCLDY    79  76  90 S7        29.98F
MOUNT PLEASANT FAIR      79  77  94 CALM      29.98F
WALTERBORO     PTCLDY    79 N/A N/A S3        29.99S
BEAUFORT       PTCLDY    82  77  84 SW5       29.98S


...EASTERN GEORGIA...

CITY           SKY/WX    TMP DP  RH WIND       PRES   REMARKS
AUGUSTA BUSH F CLEAR     76  72  87 CALM      29.96S
AUGUSTA DANIEL CLEAR     79  72  79 CALM      29.98S
THOMSON        CLEAR     77  77 100 CALM      30.03R
WASHINGTON     FAIR      81  81 100 SW5       29.98S
CLAXTON        FAIR      81  81 100 CALM      29.99R
SYLVANIA       PTCLDY    81  78  92 S5        29.99S
STATESBORO     PTCLDY    81  76  86 S7        29.98S
SAVANNAH       PTCLDY    81  75  82 S6        29.99S


...SOUTHERN NORTH CAROLINA...

CITY           SKY/WX    TMP DP  RH WIND       PRES   REMARKS
CHARLOTTE      PTCLDY    75  70  84 CALM      29.96F
MONROE         CLEAR     76  71  85 S3        29.95S
WADESBORO      CLEAR     78  72  82 CALM      29.93F
ROCKINGHAM       N/A     79  73  83 SE5       29.95S
RUTHERFORDTON  PTCLDY    73  71  94 N3        29.99S
ASHEVILLE      CLOUDY    71  68  90 N9        30.06R

$$



USA.gov is the U.S. government's official web portal to all federal, state and local government web resources and services.